• In Hungary
  • List of Countries
  • For 7 days
  • Water Temperature
  • Satellite Maps
  • Weather Map
  • News
  • Weather Widgets
  • user-avatar
    Login

    Hourly Weather Mikolajki

    Today, 21 February, Wednesday

    Time Temperature Precipitation Wind Pressure Humidity
    00:00 -4°C° 0 mm 3 mps 758 mmHg 83%
    01:00 -4°C° 0 mm 3 mps 758 mmHg 84%
    02:00 -4°C° 0 mm 3 mps 758 mmHg 84%
    03:00 -4°C° 0 mm 3 mps 758 mmHg 84%
    04:00 -4°C° 0 mm 3 mps 758 mmHg 84%
    05:00 -4°C° 0 mm 3 mps 758 mmHg 85%
    06:00 -4°C° 0 mm 3 mps 758 mmHg 85%
    07:00 -4°C° 0 mm 3 mps 758 mmHg 85%
    08:00 -4°C° 0 mm 4 mps 758 mmHg 80%
    09:00 -3°C° 0 mm 4 mps 758 mmHg 75%
    10:00 -2°C° 0 mm 4 mps 758 mmHg 70%
    11:00 -2°C° 0 mm 4 mps 758 mmHg 66%
    12:00 -1°C° 0 mm 4 mps 758 mmHg 62%
    13:00 -1°C° 0 mm 4 mps 758 mmHg 59%
    14:00 -1°C° 0 mm 4 mps 758 mmHg 58%
    15:00 -2°C° 0 mm 4 mps 758 mmHg 57%
    16:00 -2°C° 0 mm 4 mps 758 mmHg 56%
    17:00 -3°C° 0 mm 4 mps 758 mmHg 58%
    18:00 -2°C° 0 mm 3 mps 759 mmHg 60%
    19:00 -4°C° 0 mm 3 mps 759 mmHg 61%
    20:00 -4°C° 0 mm 3 mps 759 mmHg 62%
    21:00 -4°C° 0 mm 3 mps 759 mmHg 62%
    22:00 -5°C° 0 mm 3 mps 759 mmHg 63%
    23:00 -5°C° 0 mm 3 mps 760 mmHg 63%

    Tomorrow, 22 February, Thursday

    Time Temperature Precipitation Wind Pressure Humidity
    00:00 -4°C° 0 mm 2 mps 760 mmHg 62%
    01:00 -4°C° 0 mm 2 mps 760 mmHg 62%
    02:00 -4°C° 0 mm 2 mps 760 mmHg 62%
    03:00 -4°C° 0 mm 2 mps 759 mmHg 62%
    04:00 -5°C° 0 mm 3 mps 759 mmHg 62%
    05:00 -6°C° 0 mm 3 mps 759 mmHg 62%
    06:00 -6°C° 0 mm 3 mps 759 mmHg 63%
    07:00 -6°C° 0 mm 3 mps 759 mmHg 63%
    08:00 -6°C° 0 mm 3 mps 760 mmHg 60%
    09:00 -5°C° 0 mm 3 mps 760 mmHg 56%
    10:00 -4°C° 0 mm 4 mps 760 mmHg 52%
    11:00 -4°C° 0 mm 4 mps 760 mmHg 49%
    12:00 -4°C° 0 mm 4 mps 760 mmHg 46%
    13:00 -3°C° 0 mm 4 mps 760 mmHg 43%
    14:00 -3°C° 0 mm 4 mps 759 mmHg 44%
    15:00 -4°C° 0 mm 4 mps 759 mmHg 45%
    16:00 -4°C° 0 mm 4 mps 759 mmHg 47%
    17:00 -4°C° 0 mm 3 mps 759 mmHg 50%
    18:00 -5°C° 0 mm 3 mps 759 mmHg 54%
    19:00 -5°C° 0 mm 3 mps 760 mmHg 58%
    20:00 -5°C° 0 mm 3 mps 760 mmHg 59%
    21:00 -5°C° 0 mm 3 mps 760 mmHg 60%
    22:00 -6°C° 0 mm 3 mps 760 mmHg 61%
    23:00 -6°C° 0 mm 3 mps 760 mmHg 62%

    Day after tomorrow, 23 February, Friday

    Time Temperature Precipitation Wind Pressure Humidity
    00:00 -6°C° 0 mm 3 mps 760 mmHg 63%
    01:00 -6°C° 0 mm 3 mps 760 mmHg 64%
    02:00 -7°C° 0 mm 3 mps 760 mmHg 66%
    03:00 -7°C° 0 mm 3 mps 760 mmHg 67%
    04:00 -7°C° 0 mm 3 mps 760 mmHg 69%
    05:00 -7°C° 0 mm 3 mps 760 mmHg 71%
    06:00 -8°C° 0 mm 3 mps 760 mmHg 72%
    07:00 -8°C° 0 mm 3 mps 761 mmHg 74%
    08:00 -7°C° 0 mm 3 mps 761 mmHg 69%
    09:00 -7°C° 0 mm 3 mps 761 mmHg 63%
    10:00 -6°C° 0 mm 3 mps 761 mmHg 58%
    11:00 -5°C° 0 mm 3 mps 761 mmHg 52%
    12:00 -5°C° 0 mm 3 mps 761 mmHg 46%
    13:00 -4°C° 0 mm 3 mps 761 mmHg 39%
    14:00 -4°C° 0 mm 3 mps 761 mmHg 38%
    15:00 -4°C° 0 mm 3 mps 761 mmHg 38%
    16:00 -4°C° 0 mm 3 mps 761 mmHg 37%
    17:00 -4°C° 0 mm 3 mps 761 mmHg 39%
    18:00 -4°C° 0 mm 2 mps 761 mmHg 41%
    19:00 -4°C° 0 mm 2 mps 761 mmHg 43%
    20:00 -4°C° 0 mm 2 mps 762 mmHg 44%
    21:00 -5°C° 0 mm 2 mps 762 mmHg 45%
    22:00 -5°C° 0 mm 2 mps 762 mmHg 46%
    23:00 -5°C° 0 mm 2 mps 762 mmHg 47%

    24 February, Saturday

    Time Temperature Precipitation Wind Pressure Humidity
    00:00 -5°C° 0 mm 2 mps 762 mmHg 48%
    01:00 -3°C° 0 mm 1 mps 762 mmHg 49%
    02:00 -4°C° 0 mm 1 mps 762 mmHg 50%
    03:00 -4°C° 0 mm 1 mps 762 mmHg 51%
    04:00 -4°C° 0 mm 1 mps 762 mmHg 52%
    05:00 -4°C° 0 mm 1 mps 763 mmHg 52%
    06:00 -7°C° 0 mm 2 mps 763 mmHg 53%
    07:00 -7°C° 0 mm 2 mps 763 mmHg 53%
    08:00 -6°C° 0 mm 2 mps 763 mmHg 51%
    09:00 -6°C° 0 mm 3 mps 763 mmHg 48%
    10:00 -6°C° 0 mm 3 mps 763 mmHg 46%
    11:00 -5°C° 0 mm 3 mps 763 mmHg 43%
    12:00 -5°C° 0 mm 4 mps 763 mmHg 40%
    13:00 -4°C° 0 mm 4 mps 763 mmHg 38%
    14:00 -4°C° 0 mm 4 mps 763 mmHg 40%
    15:00 -6°C° 0 mm 5 mps 763 mmHg 42%
    16:00 -6°C° 0 mm 5 mps 763 mmHg 44%
    17:00 -7°C° 0 mm 5 mps 763 mmHg 44%
    18:00 -7°C° 0 mm 5 mps 763 mmHg 45%
    19:00 -9°C° 0 mm 6 mps 764 mmHg 45%
    20:00 -10°C° 0 mm 6 mps 764 mmHg 47%
    21:00 -10°C° 0 mm 6 mps 764 mmHg 48%
    22:00 -11°C° 0 mm 5 mps 765 mmHg 50%
    23:00 -11°C° 0 mm 5 mps 765 mmHg 51%

    25 February, Sunday

    Time Temperature Precipitation Wind Pressure Humidity
    00:00 -12°C° 0 mm 5 mps 765 mmHg 53%
    01:00 -12°C° 0 mm 5 mps 765 mmHg 54%
    02:00 -13°C° 0 mm 5 mps 765 mmHg 55%
    03:00 -13°C° 0 mm 5 mps 765 mmHg 56%
    04:00 -13°C° 0 mm 5 mps 765 mmHg 57%
    05:00 -12°C° 0 mm 4 mps 765 mmHg 58%
    06:00 -12°C° 0 mm 4 mps 765 mmHg 60%
    07:00 -14°C° 0 mm 4 mps 766 mmHg 61%
    08:00 -12°C° 0 mm 4 mps 766 mmHg 59%
    09:00 -12°C° 0 mm 4 mps 766 mmHg 57%
    10:00 -11°C° 0 mm 4 mps 766 mmHg 55%
    11:00 -10°C° 0 mm 4 mps 766 mmHg 51%
    12:00 -9°C° 0 mm 4 mps 766 mmHg 48%
    13:00 -9°C° 0 mm 4 mps 765 mmHg 44%
    14:00 -8°C° 0 mm 4 mps 765 mmHg 44%
    15:00 -8°C° 0 mm 4 mps 765 mmHg 44%
    16:00 -8°C° 0 mm 4 mps 764 mmHg 44%
    17:00 -9°C° 0 mm 4 mps 764 mmHg 46%
    18:00 -9°C° 0 mm 4 mps 764 mmHg 48%
    19:00 -9°C° 0 mm 4 mps 765 mmHg 50%
    20:00 -10°C° 0 mm 4 mps 765 mmHg 51%
    21:00 -10°C° 0 mm 4 mps 765 mmHg 53%
    22:00 -9°C° 0 mm 3 mps 765 mmHg 55%
    23:00 -10°C° 0 mm 3 mps 764 mmHg 56%

    26 February, Monday

    Time Temperature Precipitation Wind Pressure Humidity
    00:00 -10°C° 0 mm 3 mps 764 mmHg 58%
    01:00 -10°C° 0 mm 3 mps 764 mmHg 59%
    02:00 -12°C° 0 mm 3 mps 764 mmHg 60%
    03:00 -12°C° 0 mm 3 mps 763 mmHg 62%
    04:00 -12°C° 0 mm 3 mps 763 mmHg 63%
    05:00 -12°C° 0 mm 3 mps 763 mmHg 64%
    06:00 -13°C° 0 mm 3 mps 763 mmHg 65%
    07:00 -13°C° 0 mm 3 mps 763 mmHg 65%
    08:00 -12°C° 0 mm 3 mps 763 mmHg 60%
    09:00 -12°C° 0 mm 3 mps 763 mmHg 55%
    10:00 -10°C° 0 mm 3 mps 763 mmHg 50%
    11:00 -10°C° 0 mm 3 mps 762 mmHg 45%
    12:00 -9°C° 0 mm 3 mps 762 mmHg 40%
    13:00 -8°C° 0 mm 3 mps 761 mmHg 34%
    14:00 -8°C° 0 mm 3 mps 761 mmHg 35%
    15:00 -8°C° 0 mm 3 mps 761 mmHg 35%
    16:00 -8°C° 0 mm 3 mps 760 mmHg 35%
    17:00 -8°C° 0 mm 3 mps 760 mmHg 37%
    18:00 -9°C° 0 mm 3 mps 760 mmHg 39%
    19:00 -8°C° 0 mm 2 mps 760 mmHg 41%
    20:00 -8°C° 0 mm 2 mps 759 mmHg 42%
    21:00 -8°C° 0 mm 2 mps 759 mmHg 44%
    22:00 -9°C° 0 mm 2 mps 759 mmHg 45%
    23:00 -8°C° 0 mm 1 mps 759 mmHg 47%
    Show more